{"data":{"norad_id":66274,"intl_designator":"2025-247K","name":"STARLINK-35760","alt_names":[],"object_type":"PAYLOAD","status":"ACTIVE","operator":null,"country":"US","launch_date":"2025-10-31","launch_site_code":"AFWTR","launch_vehicle":null,"mission":null,"orbit_class":"UNKNOWN","rcs_meters":null,"size_class":null,"mass_kg":null,"dimensions":null,"purposes":["comms"],"wikipedia_slug":null,"has_3d_model":false,"image_url":null,"decayed_at":null,"tle_current":{"epoch":"2026-09-20T11:48:25.276608Z","epoch_age_seconds":97386,"freshness":"FRESH","line1":"1 66274U 25247K   26263.49195922  .00021760  00000+0  65303-3 0  9990","line2":"2 66274  53.1598   3.4251 0000951  66.0849 294.0254 15.34412470 50902","mean_motion":15.3441247,"eccentricity":9.51e-5,"inclination_deg":53.1598,"raan_deg":3.4251,"arg_perigee_deg":66.0849,"mean_anomaly_deg":294.0254,"bstar":0.00065303,"rev_number":5090,"period_min":93.846995391011,"perigee_km":462.01561660805,"apogee_km":463.31673737231,"semimajor_km":6840.8031769902,"source":"CELESTRAK","updated_at":"2026-09-21T09:00:35.868448Z"}}}